TimeEST,TemperatureF,Dew PointF,Humidity,Sea Level PressureIn,VisibilityMPH,Wind Direction,Wind SpeedMPH,Gust SpeedMPH,PrecipitationIn,Events,Conditions,WindDirDegrees,DateUTC
12:15 AM,31.5,29.7,93,30.26,10.0,Calm,Calm,-,N/A,,Clear,0,2012-12-07 05:15:00
12:35 AM,32.0,30.2,93,30.25,10.0,Calm,Calm,-,N/A,,Scattered Clouds,0,2012-12-07 05:35:00
12:55 AM,32.0,30.4,94,30.25,10.0,Calm,Calm,-,N/A,,Scattered Clouds,0,2012-12-07 05:55:00
1:15 AM,32.0,30.7,95,30.25,10.0,Calm,Calm,-,N/A,,Overcast,0,2012-12-07 06:15:00
1:35 AM,32.9,32.0,96,30.24,10.0,Calm,Calm,-,N/A,,Overcast,0,2012-12-07 06:35:00
1:55 AM,33.3,32.0,95,30.24,10.0,Calm,Calm,-,N/A,,Mostly Cloudy,0,2012-12-07 06:55:00
2:15 AM,33.3,32.0,95,30.23,10.0,Calm,Calm,-,N/A,,Overcast,0,2012-12-07 07:15:00
2:35 AM,33.4,32.0,94,30.23,10.0,Calm,Calm,-,N/A,,Overcast,0,2012-12-07 07:35:00
2:55 AM,34.9,32.9,92,30.22,10.0,Calm,Calm,-,N/A,,Overcast,0,2012-12-07 07:55:00
3:15 AM,35.6,33.6,92,30.22,7.0,Calm,Calm,-,N/A,Rain,Rain,0,2012-12-07 08:15:00
3:35 AM,35.2,33.6,94,30.21,10.0,Calm,Calm,-,N/A,Rain,Light Rain,0,2012-12-07 08:35:00
3:55 AM,35.1,33.8,95,30.21,10.0,Calm,Calm,-,N/A,,Overcast,0,2012-12-07 08:55:00
4:15 AM,36.7,35.2,95,30.20,10.0,Calm,Calm,-,N/A,,Overcast,0,2012-12-07 09:15:00
4:35 AM,37.6,36.0,94,30.20,10.0,Calm,Calm,-,N/A,,Overcast,0,2012-12-07 09:35:00
4:55 AM,37.2,35.6,94,30.20,10.0,Calm,Calm,-,N/A,,Overcast,0,2012-12-07 09:55:00
5:15 AM,37.6,36.3,95,30.20,10.0,Calm,Calm,-,N/A,,Overcast,0,2012-12-07 10:15:00
5:35 AM,38.3,36.7,94,30.19,10.0,Calm,Calm,-,N/A,,Overcast,0,2012-12-07 10:35:00
5:55 AM,38.7,36.7,93,30.20,10.0,Calm,Calm,-,N/A,,Overcast,0,2012-12-07 10:55:00
6:15 AM,39.2,36.7,91,30.20,10.0,Calm,Calm,-,N/A,,Overcast,0,2012-12-07 11:15:00
6:35 AM,39.4,36.9,91,30.20,10.0,Calm,Calm,-,N/A,,Overcast,0,2012-12-07 11:35:00
6:55 AM,39.4,36.7,90,30.20,10.0,Calm,Calm,-,N/A,,Overcast,0,2012-12-07 11:55:00
7:15 AM,39.6,36.9,90,30.20,7.0,Calm,Calm,-,N/A,,Overcast,0,2012-12-07 12:15:00
7:35 AM,39.9,36.9,89,30.19,10.0,SSE,3.5,-,N/A,,Overcast,150,2012-12-07 12:35:00
7:55 AM,40.5,36.9,87,30.19,7.0,SSE,3.5,-,N/A,,Overcast,150,2012-12-07 12:55:00
8:15 AM,41.0,37.6,88,30.20,10.0,Calm,Calm,-,N/A,,Overcast,0,2012-12-07 13:15:00
8:35 AM,41.9,38.1,86,30.19,7.0,SE,4.6,-,N/A,,Overcast,140,2012-12-07 13:35:00
8:55 AM,42.8,38.5,85,30.19,7.0,Calm,Calm,-,N/A,,Overcast,0,2012-12-07 13:55:00
9:15 AM,43.2,38.8,85,30.19,10.0,Calm,Calm,-,N/A,,Overcast,0,2012-12-07 14:15:00
9:35 AM,43.7,39.0,84,30.19,10.0,Calm,Calm,-,N/A,,Overcast,0,2012-12-07 14:35:00
9:55 AM,44.6,40.1,84,30.19,7.0,Calm,Calm,-,N/A,,Overcast,0,2012-12-07 14:55:00
10:15 AM,44.8,40.1,84,30.19,7.0,South,3.5,-,N/A,,Overcast,180,2012-12-07 15:15:00
10:35 AM,45.5,40.8,84,30.18,7.0,Calm,Calm,-,N/A,,Overcast,0,2012-12-07 15:35:00
10:55 AM,46.2,41.0,82,30.17,7.0,SSW,3.5,-,N/A,,Overcast,200,2012-12-07 15:55:00
11:15 AM,47.3,41.5,80,30.16,7.0,SSE,3.5,-,N/A,,Overcast,160,2012-12-07 16:15:00
11:35 AM,48.2,41.9,79,30.15,7.0,South,3.5,-,N/A,,Overcast,180,2012-12-07 16:35:00
11:55 AM,48.7,41.9,77,30.15,10.0,South,3.5,-,N/A,,Overcast,170,2012-12-07 16:55:00
12:15 PM,49.6,41.9,75,30.13,10.0,South,3.5,-,N/A,,Overcast,170,2012-12-07 17:15:00
12:35 PM,50.4,41.5,72,30.12,7.0,South,3.5,-,N/A,,Overcast,170,2012-12-07 17:35:00
12:55 PM,50.4,41.5,72,30.11,10.0,SSE,4.6,-,N/A,,Overcast,160,2012-12-07 17:55:00
1:15 PM,50.9,41.5,70,30.10,10.0,South,5.8,-,N/A,,Overcast,180,2012-12-07 18:15:00
1:35 PM,51.3,41.7,70,30.09,7.0,SSW,5.8,-,N/A,,Overcast,210,2012-12-07 18:35:00
1:55 PM,51.1,41.7,70,30.09,7.0,SSW,4.6,-,N/A,,Overcast,210,2012-12-07 18:55:00
2:15 PM,51.4,41.5,69,30.08,7.0,South,3.5,-,N/A,,Overcast,180,2012-12-07 19:15:00
2:35 PM,51.8,41.5,68,30.07,7.0,South,3.5,-,N/A,,Overcast,170,2012-12-07 19:35:00
2:55 PM,52.5,41.9,67,30.07,7.0,Calm,Calm,-,N/A,,Overcast,0,2012-12-07 19:55:00
3:15 PM,52.7,42.1,67,30.07,10.0,Calm,Calm,-,N/A,,Overcast,0,2012-12-07 20:15:00
3:35 PM,52.3,41.7,67,30.07,10.0,Calm,Calm,-,N/A,Rain,Light Rain,0,2012-12-07 20:35:00
3:55 PM,51.8,42.8,71,30.07,10.0,Calm,Calm,-,N/A,Rain,Rain,0,2012-12-07 20:55:00
4:15 PM,51.3,44.1,76,30.07,10.0,Calm,Calm,-,N/A,Rain,Rain,0,2012-12-07 21:15:00
4:35 PM,50.4,45.7,84,30.07,10.0,Calm,Calm,-,N/A,,Drizzle,0,2012-12-07 21:35:00
4:55 PM,49.6,46.8,90,30.06,10.0,Calm,Calm,-,N/A,,Light Drizzle,0,2012-12-07 21:55:00
5:15 PM,49.6,47.5,92,30.06,10.0,Calm,Calm,-,N/A,Rain,Light Rain,0,2012-12-07 22:15:00
5:35 PM,49.5,47.7,94,30.06,10.0,Calm,Calm,-,N/A,Rain,Light Rain,0,2012-12-07 22:35:00
5:55 PM,49.3,47.7,94,30.06,10.0,Calm,Calm,-,N/A,Rain,Light Rain,0,2012-12-07 22:55:00
6:15 PM,49.1,47.5,94,30.05,10.0,Calm,Calm,-,N/A,Rain,Light Rain,0,2012-12-07 23:15:00
6:35 PM,49.1,47.5,94,30.05,10.0,Calm,Calm,-,N/A,Rain,Light Rain,0,2012-12-07 23:35:00
6:55 PM,48.6,47.5,96,30.05,7.0,Calm,Calm,-,N/A,Rain,Rain,0,2012-12-07 23:55:00
7:15 PM,48.6,47.7,97,30.04,5.0,Calm,Calm,-,N/A,Rain,Light Rain,0,2012-12-08 00:15:00
7:35 PM,48.4,47.5,97,30.03,7.0,Calm,Calm,-,N/A,,Overcast,0,2012-12-08 00:35:00
7:55 PM,48.4,47.5,97,30.03,7.0,Calm,Calm,-,N/A,Rain,Rain,0,2012-12-08 00:55:00
8:15 PM,48.4,47.5,97,30.03,7.0,Calm,Calm,-,N/A,Rain,Light Rain,0,2012-12-08 01:15:00
8:35 PM,48.2,47.5,97,30.04,7.0,West,4.6,-,N/A,Rain,Light Rain,280,2012-12-08 01:35:00
8:55 PM,48.2,47.5,97,30.03,5.0,Calm,Calm,-,N/A,,Overcast,0,2012-12-08 01:55:00
9:15 PM,48.2,47.3,97,30.03,5.0,Calm,Calm,-,N/A,,Overcast,0,2012-12-08 02:15:00
9:35 PM,48.2,47.3,97,30.03,5.0,West,3.5,-,N/A,Rain,Light Rain,280,2012-12-08 02:35:00
9:55 PM,48.2,47.3,97,30.02,5.0,West,3.5,-,N/A,Rain,Light Rain,270,2012-12-08 02:55:00
10:15 PM,48.2,47.3,97,30.02,7.0,Calm,Calm,-,N/A,,Light Drizzle,0,2012-12-08 03:15:00
10:35 PM,48.2,47.5,97,30.01,5.0,Calm,Calm,-,N/A,,Overcast,0,2012-12-08 03:35:00
10:55 PM,48.4,47.7,97,30.01,5.0,Calm,Calm,-,N/A,,Overcast,0,2012-12-08 03:55:00
11:15 PM,48.6,47.8,97,30.00,5.0,Calm,Calm,-,N/A,Rain,Heavy Rain,0,2012-12-08 04:15:00
11:35 PM,48.6,48.0,98,29.99,5.0,Calm,Calm,-,N/A,,Overcast,0,2012-12-08 04:35:00
11:55 PM,48.4,47.8,98,29.99,4.0,Calm,Calm,-,N/A,Rain,Rain,0,2012-12-08 04:55:00